Regional Weather Roundup
Issued by NWS

Home | Current Version | Previous Version | Text Only | Print | Product List | Glossary On
Versions: 1 2 3 4 5 6 7 8 9 10 11 12 13 14 15 16 17 18 19 20 21 22 23 24 25 26 27 28 29 30 31 32 33 34 35 36 37 38 39 40 41 42 43 44 45 46 47 48 49 50
000
ASUS45 KPSR 302210
RWRAZ

ARIZONA HOURLY REGIONAL WEATHER ROUNDUP
NATIONAL WEATHER SERVICE PHOENIX AZ
300 PM MST TUE JUN 30 2015

NOTE: FAIR INDICATES FEW OR NO CLOUDS BELOW 12,000 FEET WITH NO
SIGNIFICANT WEATHER AND/OR OBSTRUCTIONS TO VISIBILITY.

AZZ001>003-036-302300-
NORTHWEST ARIZONA

CITY           SKY/WX    TMP DP  RH WIND       PRES   REMARKS
BULLHEAD CITY  SUNNY    111  55  16 S18       29.72F HX 110
KINGMAN        SUNNY    102  52  18 SW14G23   29.98F
$$

AZZ004>008-015-016-018-302300-
NORTH CENTRAL ARIZONA

CITY           SKY/WX    TMP DP  RH WIND       PRES   REMARKS
GRAND CANYON   MOSUNNY   87  50  27 SW6       30.22F
WILLIAMS       MOSUNNY   86  46  25 CALM      30.29F
PRESCOTT       MOSUNNY   91  54  28 W8        30.09F
FLAGSTAFF      MOSUNNY   82  50  32 NW6       30.24F
PAYSON         PTSUNNY   88  55  33 W9        30.12F
PAGE           MOSUNNY  103  40  11 N6        29.97F
$$

AZZ009>014-017-302300-
NORTHEAST ARIZONA

CITY           SKY/WX    TMP DP  RH WIND       PRES   REMARKS
WINSLOW        SUNNY    103  44  13 NW13      30.03F
SAINT JOHNS    MOSUNNY   94  44  17 VRB3G17   30.08F
WINDOW ROCK    PTSUNNY   90  48  23 N10       30.21F
SHOW LOW       MOSUNNY   90  41  18 NE7       30.16F
$$

AZZ023-302300-
GREATER PHOENIX AREA

CITY           SKY/WX    TMP DP  RH WIND       PRES   REMARKS
PHOENIX        MOSUNNY  103  60  24 W12G18    29.78F HX 104
BUCKEYE        SUNNY    104  57  21 W7        29.79F HX 103
GLENDALE       MOSUNNY  106  61  23 S17G23    29.80F HX 107
LUKE AFB       SUNNY    104  61  24 W9G18     29.77F HX 105
DEER VALLEY    SUNNY    102  58  23 SW7G20    29.80F HX 102
SCOTTSDALE     SUNNY    101  60  25 VRB3G16   29.82F HX 101
MESA-GATEWAY   MOSUNNY  100  61  27 W10       29.83F HX 101
$$

AZZ027-028-302300-
SOUTHWEST MARICOPA COUNTY AND PINAL COUNTY

CITY           SKY/WX    TMP DP  RH WIND       PRES   REMARKS
CASA GRANDE    SUNNY    102  61  25 W15G25    29.82F HX 103
GILA BEND      MOSUNNY  102  59  24 SW12G24   29.80F HX 102
$$

AZZ503-504-507>509-302300-
SOUTHEAST ARIZONA

CITY           SKY/WX    TMP DP  RH WIND       PRES   REMARKS
TUCSON         SUNNY     98  59  27 W16       29.92F
DAVIS-MONTHAN  SUNNY     97  59  28 NW12G21   29.90F
RYAN FIELD     SUNNY     97  61  30 W13       29.92F
NOGALES        MOSUNNY   93  60  33 NW14G24   29.98F
SIERRA VISTA   PTSUNNY   91  48  22 SE10G17   30.03F
DOUGLAS        MOSUNNY   97  45  16 E9        29.96F
SAFFORD        SUNNY    102  49  16 VRB5      29.88F
$$

AZZ020-021-025-026-031-302300-
SOUTHWEST ARIZONA

CITY           SKY/WX    TMP DP  RH WIND       PRES   REMARKS
YUMA           PTSUNNY   98  66  34 S10       29.79F HX 101
$$

CAZ031-033-041-043-047-048-061-302300-
SOUTHERN CALIFORNIA

CITY           SKY/WX    TMP DP  RH WIND       PRES   REMARKS
DOWNTOWN L.A.  SUNNY     83  63  50 CALM      29.87S
L.A. AIRPORT   MOSUNNY   74  65  73 W10       29.90S
SAN DIEGO      TSTM      72  63  73 NW7       29.92F
BURBANK        SUNNY     94  54  25 S15       29.87S
ONTARIO        PTSUNNY   96  54  24 SW20G26   29.88S
RIVERSIDE      PTSUNNY   99  55  23 W13G25    29.87S
PALM SPRINGS   CLOUDY   101  65  30 CALM      29.82F HX 104
EL CENTRO NAS  CLOUDY   100  57  23 W18       29.78F
IMPERIAL       CLOUDY    98  62  30 SE9       29.76F
BLYTHE         SUNNY    106  58  20 SW16G25   29.76F HX 106
NEEDLES        SUNNY    112  56  16 SW16G25   29.75F HX 111
$$

NVZ020-UTZ003-302300-
SOUTHERN NEVADA-UTAH

CITY           SKY/WX    TMP DP  RH WIND       PRES   REMARKS
LAS VEGAS      MOSUNNY  111  46  11 S9        29.77F HX 106
SALT LAKE CITY MOSUNNY   99  54  22 N8        29.99F
$$

NMZ009-TXZ055-302300-
NEW MEXICO-WEST TEXAS

CITY           SKY/WX    TMP DP  RH WIND       PRES   REMARKS
ALBUQUERQUE    MOSUNNY   91  46  21 SE6       30.11F
EL PASO        MOSUNNY   93  48  21 SE10G22   30.02F
$$


........................KEY........................
SKY/WX - SKY CONDITION/WEATHER
TMP    - TEMPERATURE IN FAHRENHEIT
DP     - DEW POINT IN FAHRENHEIT
RH     - RELATIVE HUMIDITY IN PERCENT
WIND   - DIRECTION AND SPEED IN MILES PER HOUR (MPH)
VRB    - VARIABLE WIND DIRECTION
PRES   - MEAN SEA LEVEL PRESSURE IN INCHES OF MERCURY
         F - FALLING PRESSURE   R - RISING PRESSURE
         S - STEADY PRESSURE
VSB    - VISIBILITY IN MILES
HX     - HEAT INDEX IN FAHRENHEIT
WCI    - WIND CHILL INDEX IN FAHRENHEIT
TC     - TEMPERATURE IN CELSIUS WHICH IS ALSO KNOWN AS
         TEMPERATURE IN CENTIGRADE
AFB    - AIR FORCE BASE
         LUKE AFB IS LUKE AIR FORCE BASE
         DAVIS-MONTHAN IS DAVIS-MONTHAN AIR FORCE BASE
NAS    - NAVAL AIR STATION
         EL CENTRO NAS IS EL CENTRO NAVAL AIR STATION
N/A    - NOT AVAILABLE




USA.gov is the U.S. government's official web portal to all federal, state and local government web resources and services.